Location: Mannheim
(49.4880°N, 8.4650°E)
Time: 15:13:42
(UTC+02:00)

ISS - Pass Details

Date: 02 June 2020
Orbit: 417 x 421 km, 51.6° (Epoch: 07 July)

Event Time Altitude Azimuth Distance (km) Brightness Sun altitude
Rises 22:08:58 0° 283° (WNW) 2,379 1.2 -6.1°
Reaches altitude 10° 22:11:40 10° 260° (W) 1,510 -0.4 -6.4°
Maximum altitude 22:13:46 16° 222° (SW) 1,213 -1.5 -6.7°
Drops below altitude 10° 22:15:52 10° 184° (S) 1,505 -1.3 -6.9°
Enters shadow 22:17:05 - 171° (S) 1,858 -1.0 -7.0°
